This demonstration page uses our WeatherBlox Daily Observations layout. Learn more.

Left ArrowRight Arrow

Hourly Observations for April 13, 2017

Temp ( °F °C ) Dew Point ( °F °C ) Humidity (%) Winds ( mph kmh ) Pressure ( in mb ) Visibility ( mi km ) Precip ( " mm )
12:53 am 00:53 Cloudy 48 8.9 40 4.4 74 74 ENE 16 26 29.96 1015 10 16 0.00 0.00
1:53 am 01:53 Cloudy 46 7.8 39 3.9 77 77 E 20 31 29.93 1014 10 16 0.00 0.03
2:53 am 02:53 Clear 43 6.1 37 2.8 80 80 ENE 17 28 29.89 1012 10 16 0.00 0.00
3:53 am 03:53 Clear 44 6.7 36 2.2 73 73 E 22 35 29.85 1011 10 16 0.00 0.00
4:53 am 04:53 Clear 44 6.7 36 2.2 73 73 E 20 31 29.80 1009 10 16 0.00 0.00
5:53 am 05:53 Clear 44 6.7 35 1.7 71 71 E 23 37 29.78 1009 10 16 0.00 0.00
6:53 am 06:53 Sunny 44 6.7 35 1.7 71 71 E 23 37 29.76 1008 10 16 0.00 0.00
7:53 am 07:53 Mostly Cloudy 44 6.7 35 1.7 71 71 E 26 43 29.74 1007 10 16 0.00 0.00
8:53 am 08:53 Mostly Sunny 44 6.7 35 1.7 71 71 E 24 39 29.70 1006 10 16 0.00 0.00
9:53 am 09:53 Partly Cloudy 50 10 37 2.8 61 61 E 23 37 29.68 1005 10 16 0.00 0.00
10:53 am 10:53 Sunny 53 11.7 39 3.9 59 59 ENE 15 24 29.67 1005 10 16 0.00 0.00
11:53 am 11:53 Sunny 60 15.6 40 4.4 47 47 E 17 28 29.63 1004 10 16 0.00 0.00
12:53 pm 12:53 Sunny 66 18.9 41 5 40 40 E 13 20 29.60 1002 10 16 0.00 0.00
1:53 pm 13:53 Sunny 69 20.6 39 3.9 33 33 S 6 9 29.55 1001 10 16 0.00 0.00
2:53 pm 14:53 Sunny 73 22.8 41 5 32 32 WNW 8 13 29.52 1000 10 16 0.00 0.00
3:53 pm 15:53 Sunny 74 23.3 41 5 31 31 W 13 20 29.49 999 10 16 0.00 0.00
4:53 pm 16:53 Sunny 71 21.7 40 4.4 32 32 WNW 14 22 29.48 998 10 16 0.00 0.00
5:53 pm 17:53 Partly Cloudy 64 17.8 39 3.9 40 40 WNW 22 35 29.52 1000 9 14 0.00 0.00
6:53 pm 18:53 Partly Cloudy 60 15.6 40 4.4 47 47 NW 18 30 29.50 999 10 16 0.00 0.00
7:07 pm 19:07 Cloudy with Thunderstorms 59 15 42 5.6 54 54 WSW 13 20 29.50 999 9 14 0.00 0.00
7:38 pm 19:38 Cloudy with Nearby Thunderstorms 54 12 46 8 77 77 W 14 22 29.53 1000 10 16 0.00 0.00
7:46 pm 19:46 Cloudy 54 12.2 47 8.3 77 77 W 17 28 29.56 1001 10 16 0.03 0.76
7:53 pm 19:53 Cloudy 55 12.8 46 7.8 72 72 WNW 25 41 29.61 1003 10 16 0.03 0.76
8:53 pm 20:53 Clear 51 10.6 46 7.8 83 83 NW 16 26 29.60 1002 10 16 0.00 0.03
9:53 pm 21:53 Partly Cloudy 48 8.9 44 6.7 86 86 W 8 13 29.64 1004 10 16 0.00 0.00
10:53 pm 22:53 Mostly Clear 47 8.3 42 5.6 83 83 NNW 7 11 29.57 1002 10 16 0.00 0.00
11:53 pm 23:53 Partly Cloudy 45 7.2 42 5.6 90 90 WSW 13 20 29.60 1002 10 16 0.00 0.00

Powered by AerisWeather